Year,Month,Day,Hour,Minute,Value (Times are PST for temperature in C)
2015,09,26,00,00,7.70
2015,09,26,00,01,7.70
2015,09,26,00,02,7.60
2015,09,26,00,03,7.60
2015,09,26,00,04,7.60
2015,09,26,00,05,7.60
2015,09,26,00,06,7.50
2015,09,26,00,07,7.50
2015,09,26,00,08,7.50
2015,09,26,00,09,7.50
2015,09,26,00,10,7.40
2015,09,26,00,11,7.40
2015,09,26,00,12,7.40
2015,09,26,00,13,7.40
2015,09,26,00,14,7.30
2015,09,26,00,15,7.30
2015,09,26,00,16,7.30
2015,09,26,00,17,7.30
2015,09,26,00,18,7.30
2015,09,26,00,19,7.20
2015,09,26,00,20,7.20
2015,09,26,00,21,7.20
2015,09,26,00,22,7.20
2015,09,26,00,23,7.20
2015,09,26,00,24,7.20
2015,09,26,00,25,7.20
2015,09,26,00,26,7.10
2015,09,26,00,27,7.10
2015,09,26,00,28,7.10
2015,09,26,00,29,7.10
2015,09,26,00,30,7.10
2015,09,26,00,31,7.10
2015,09,26,00,32,7.10
2015,09,26,00,33,7.10
2015,09,26,00,34,7.10
2015,09,26,00,35,7.10
2015,09,26,00,36,7.10
2015,09,26,00,37,7.10
2015,09,26,00,38,7.10
2015,09,26,00,39,7.20
2015,09,26,00,40,7.20
2015,09,26,00,41,7.20
2015,09,26,00,42,7.20
2015,09,26,00,43,7.20
2015,09,26,00,44,7.20
2015,09,26,00,45,7.20
2015,09,26,00,46,7.20
2015,09,26,00,47,7.20
2015,09,26,00,48,7.20
2015,09,26,00,49,7.20
2015,09,26,00,50,7.20
2015,09,26,00,51,7.20
2015,09,26,00,52,7.20
2015,09,26,00,53,7.20
2015,09,26,00,54,7.20
2015,09,26,00,55,7.20
2015,09,26,00,56,7.20
2015,09,26,00,57,7.20
2015,09,26,00,58,7.20
2015,09,26,00,59,7.20
2015,09,26,01,00,7.20
2015,09,26,01,01,7.20
2015,09,26,01,02,7.20
2015,09,26,01,03,7.20
2015,09,26,01,04,7.20
2015,09,26,01,05,7.20
2015,09,26,01,06,7.20
2015,09,26,01,07,7.20
2015,09,26,01,08,7.30
2015,09,26,01,09,7.30
2015,09,26,01,10,7.30
2015,09,26,01,11,7.30
2015,09,26,01,12,7.30
2015,09,26,01,13,7.40
2015,09,26,01,14,7.40
2015,09,26,01,15,7.40
2015,09,26,01,16,7.40
2015,09,26,01,17,7.40
2015,09,26,01,18,7.40
2015,09,26,01,19,7.40
2015,09,26,01,20,7.40
2015,09,26,01,21,7.40
2015,09,26,01,22,7.40
2015,09,26,01,23,7.50
2015,09,26,01,24,7.50
2015,09,26,01,25,7.50
2015,09,26,01,26,7.50
2015,09,26,01,27,7.50
2015,09,26,01,28,7.50
2015,09,26,01,29,7.50
2015,09,26,01,30,7.50
2015,09,26,01,31,7.50
2015,09,26,01,32,7.50
2015,09,26,01,33,7.50
2015,09,26,01,34,7.50
2015,09,26,01,35,7.50
2015,09,26,01,36,7.50
2015,09,26,01,37,7.50
2015,09,26,01,38,7.50
2015,09,26,01,39,7.50
2015,09,26,01,40,7.50
2015,09,26,01,41,7.50
2015,09,26,01,42,7.50
2015,09,26,01,43,7.50
2015,09,26,01,44,7.50
2015,09,26,01,45,7.50
2015,09,26,01,46,7.50
2015,09,26,01,47,7.50
2015,09,26,01,48,7.50
2015,09,26,01,49,7.50
2015,09,26,01,50,7.40
2015,09,26,01,51,7.40
2015,09,26,01,52,7.40
2015,09,26,01,53,7.40
2015,09,26,01,54,7.40
2015,09,26,01,55,7.40
2015,09,26,01,56,7.40
2015,09,26,01,57,7.40
2015,09,26,01,58,7.30
2015,09,26,01,59,7.30
2015,09,26,02,00,7.30
2015,09,26,02,01,7.30
2015,09,26,02,02,7.30
2015,09,26,02,03,7.30
2015,09,26,02,04,7.30
2015,09,26,02,05,7.30
2015,09,26,02,06,7.30
2015,09,26,02,07,7.30
2015,09,26,02,08,7.30
2015,09,26,02,09,7.20
2015,09,26,02,10,7.20
2015,09,26,02,11,7.20
2015,09,26,02,12,7.20
2015,09,26,02,13,7.20
2015,09,26,02,14,7.20
2015,09,26,02,15,7.20
2015,09,26,02,16,7.20
2015,09,26,02,17,7.20
2015,09,26,02,18,7.20
2015,09,26,02,19,7.20
2015,09,26,02,20,7.20
2015,09,26,02,21,7.20
2015,09,26,02,22,7.20
2015,09,26,02,23,7.20
2015,09,26,02,24,7.20
2015,09,26,02,25,7.20
2015,09,26,02,26,7.20
2015,09,26,02,27,7.20
2015,09,26,02,28,7.20
2015,09,26,02,29,7.20
2015,09,26,02,30,7.20
2015,09,26,02,31,7.20
2015,09,26,02,32,7.20
2015,09,26,02,33,7.20
2015,09,26,02,34,7.20
2015,09,26,02,35,7.20
2015,09,26,02,36,7.20
2015,09,26,02,37,7.20
2015,09,26,02,38,7.20
2015,09,26,02,39,7.20
2015,09,26,02,40,7.20
2015,09,26,02,41,7.20
2015,09,26,02,42,7.20
2015,09,26,02,43,7.20
2015,09,26,02,44,7.20
2015,09,26,02,45,7.20
2015,09,26,02,46,7.20
2015,09,26,02,47,7.20
2015,09,26,02,48,7.20
2015,09,26,02,49,7.20
2015,09,26,02,50,7.10
2015,09,26,02,51,7.10
2015,09,26,02,52,7.10
2015,09,26,02,53,7.10
2015,09,26,02,54,7.10
2015,09,26,02,55,7.10
2015,09,26,02,56,7.10
2015,09,26,02,57,7.10
2015,09,26,02,58,7.00
2015,09,26,02,59,7.00
2015,09,26,03,00,7.00
2015,09,26,03,01,6.90
2015,09,26,03,02,6.90
2015,09,26,03,03,6.90
2015,09,26,03,04,6.90
2015,09,26,03,05,6.90
2015,09,26,03,06,6.90
2015,09,26,03,07,6.90
2015,09,26,03,08,6.80
2015,09,26,03,09,6.80
2015,09,26,03,10,6.80
2015,09,26,03,11,6.80
2015,09,26,03,12,6.80
2015,09,26,03,13,6.80
2015,09,26,03,14,6.80
2015,09,26,03,15,6.70
2015,09,26,03,16,6.70
2015,09,26,03,17,6.70
2015,09,26,03,18,6.70
2015,09,26,03,19,6.70
2015,09,26,03,20,6.70
2015,09,26,03,21,6.70
2015,09,26,03,22,6.60
2015,09,26,03,23,6.60
2015,09,26,03,24,6.60
2015,09,26,03,25,6.60
2015,09,26,03,26,6.60
2015,09,26,03,27,6.50
2015,09,26,03,28,6.50
2015,09,26,03,29,6.50
2015,09,26,03,30,6.50
2015,09,26,03,31,6.40
2015,09,26,03,32,6.40
2015,09,26,03,33,6.40
2015,09,26,03,34,6.40
2015,09,26,03,35,6.40
2015,09,26,03,36,6.40
2015,09,26,03,37,6.40
2015,09,26,03,38,6.40
2015,09,26,03,39,6.30
2015,09,26,03,40,6.30
2015,09,26,03,41,6.30
2015,09,26,03,42,6.30
2015,09,26,03,43,6.30
2015,09,26,03,44,6.30
2015,09,26,03,45,6.30
2015,09,26,03,46,6.30
2015,09,26,03,47,6.30
2015,09,26,03,48,6.20
2015,09,26,03,49,6.20
2015,09,26,03,50,6.20
2015,09,26,03,51,6.20
2015,09,26,03,52,6.10
2015,09,26,03,53,6.10
2015,09,26,03,54,6.10
2015,09,26,03,55,6.00
2015,09,26,03,56,6.00
2015,09,26,03,57,6.00
2015,09,26,03,58,5.90
2015,09,26,03,59,5.90
2015,09,26,04,00,5.90
2015,09,26,04,01,5.90
2015,09,26,04,02,5.90
2015,09,26,04,03,5.80
2015,09,26,04,04,5.80
2015,09,26,04,05,5.80
2015,09,26,04,06,5.80
2015,09,26,04,07,5.80
2015,09,26,04,08,5.80
2015,09,26,04,09,5.80
2015,09,26,04,10,5.80
2015,09,26,04,11,5.80
2015,09,26,04,12,5.80
2015,09,26,04,13,5.80
2015,09,26,04,14,5.80
2015,09,26,04,15,5.80
2015,09,26,04,16,5.80
2015,09,26,04,17,5.80
2015,09,26,04,18,5.70
2015,09,26,04,19,5.70
2015,09,26,04,20,5.70
2015,09,26,04,21,5.70
2015,09,26,04,22,5.70
2015,09,26,04,23,5.70
2015,09,26,04,24,5.70
2015,09,26,04,25,5.70
2015,09,26,04,26,5.70
2015,09,26,04,27,5.70
2015,09,26,04,28,5.60
2015,09,26,04,29,5.60
2015,09,26,04,30,5.60
2015,09,26,04,31,5.60
2015,09,26,04,32,5.60
2015,09,26,04,33,5.60
2015,09,26,04,34,5.60
2015,09,26,04,35,5.60
2015,09,26,04,36,5.60
2015,09,26,04,37,5.60
2015,09,26,04,38,5.60
2015,09,26,04,39,5.60
2015,09,26,04,40,5.60
2015,09,26,04,41,5.60
2015,09,26,04,42,5.50
2015,09,26,04,43,5.50
2015,09,26,04,44,5.50
2015,09,26,04,45,5.50
2015,09,26,04,46,5.50
2015,09,26,04,47,5.50
2015,09,26,04,48,5.50
2015,09,26,04,49,5.50
2015,09,26,04,50,5.50
2015,09,26,04,51,5.50
2015,09,26,04,52,5.40
2015,09,26,04,53,5.40
2015,09,26,04,54,5.40
2015,09,26,04,55,5.40
2015,09,26,04,56,5.40
2015,09,26,04,57,5.40
2015,09,26,04,58,5.30
2015,09,26,04,59,5.30
2015,09,26,05,00,5.30
2015,09,26,05,01,5.30
2015,09,26,05,02,5.30
2015,09,26,05,03,5.30
2015,09,26,05,04,5.30
2015,09,26,05,05,5.30
2015,09,26,05,06,5.30
2015,09,26,05,07,5.20
2015,09,26,05,08,5.20
2015,09,26,05,09,5.20
2015,09,26,05,10,5.20
2015,09,26,05,11,5.20
2015,09,26,05,12,5.20
2015,09,26,05,13,5.20
2015,09,26,05,14,5.20
2015,09,26,05,15,5.20
2015,09,26,05,16,5.20
2015,09,26,05,17,5.20
2015,09,26,05,18,5.20
2015,09,26,05,19,5.20
2015,09,26,05,20,5.20
2015,09,26,05,21,5.20
2015,09,26,05,22,5.20
2015,09,26,05,23,5.20
2015,09,26,05,24,5.20
2015,09,26,05,25,5.20
2015,09,26,05,26,5.20
2015,09,26,05,27,5.20
2015,09,26,05,28,5.20
2015,09,26,05,29,5.20
2015,09,26,05,30,5.20
2015,09,26,05,31,5.20
2015,09,26,05,32,5.10
2015,09,26,05,33,5.10
2015,09,26,05,34,5.10
2015,09,26,05,35,5.10
2015,09,26,05,36,5.10
2015,09,26,05,37,5.10
2015,09,26,05,38,5.10
2015,09,26,05,39,5.10
2015,09,26,05,40,5.10
2015,09,26,05,41,5.10
2015,09,26,05,42,5.10
2015,09,26,05,43,5.10
2015,09,26,05,44,5.10
2015,09,26,05,45,5.10
2015,09,26,05,46,5.10
2015,09,26,05,47,5.10
2015,09,26,05,48,5.10
2015,09,26,05,49,5.10
2015,09,26,05,50,5.10
2015,09,26,05,51,5.10
2015,09,26,05,52,5.10
2015,09,26,05,53,5.10
2015,09,26,05,54,5.10
2015,09,26,05,55,5.10
2015,09,26,05,56,5.10
2015,09,26,05,57,5.10
2015,09,26,05,58,5.10
2015,09,26,05,59,5.10
2015,09,26,06,00,5.20
2015,09,26,06,01,5.20
2015,09,26,06,02,5.20
2015,09,26,06,03,5.20
2015,09,26,06,04,5.20
2015,09,26,06,05,5.10
2015,09,26,06,06,5.20
2015,09,26,06,07,5.20
2015,09,26,06,08,5.10
2015,09,26,06,09,5.10
2015,09,26,06,10,5.10
2015,09,26,06,11,5.10
2015,09,26,06,12,5.20
2015,09,26,06,13,5.20
2015,09,26,06,14,5.20
2015,09,26,06,15,5.20
2015,09,26,06,16,5.20
2015,09,26,06,17,5.20
2015,09,26,06,18,5.30
2015,09,26,06,19,5.30
2015,09,26,06,20,5.30
2015,09,26,06,21,5.30
2015,09,26,06,22,5.30
2015,09,26,06,23,5.30
2015,09,26,06,24,5.30
2015,09,26,06,25,5.30
2015,09,26,06,26,5.30
2015,09,26,06,27,5.30
2015,09,26,06,28,5.30
2015,09,26,06,29,5.40
2015,09,26,06,30,5.40
2015,09,26,06,31,5.40
2015,09,26,06,32,5.40
2015,09,26,06,33,5.40
2015,09,26,06,34,5.40
2015,09,26,06,35,5.40
2015,09,26,06,36,5.40
2015,09,26,06,37,5.40
2015,09,26,06,38,5.40
2015,09,26,06,39,5.40
2015,09,26,06,40,5.40
2015,09,26,06,41,5.40
2015,09,26,06,42,5.50
2015,09,26,06,43,5.50
2015,09,26,06,44,5.50
2015,09,26,06,45,5.50
2015,09,26,06,46,5.50
2015,09,26,06,47,5.60
2015,09,26,06,48,5.60
2015,09,26,06,49,5.60
2015,09,26,06,50,5.60
2015,09,26,06,51,5.60
2015,09,26,06,52,5.70
2015,09,26,06,53,5.70
2015,09,26,06,54,5.70
2015,09,26,06,55,5.70
2015,09,26,06,56,5.70
2015,09,26,06,57,5.80
2015,09,26,06,58,5.80
2015,09,26,06,59,5.80
2015,09,26,07,00,5.90
2015,09,26,07,01,5.90
2015,09,26,07,02,6.00
2015,09,26,07,03,6.00
2015,09,26,07,04,6.00
2015,09,26,07,05,6.10
2015,09,26,07,06,6.10
2015,09,26,07,07,6.10
2015,09,26,07,08,6.10
2015,09,26,07,09,6.20
2015,09,26,07,10,6.20
2015,09,26,07,11,6.20
2015,09,26,07,12,6.20
2015,09,26,07,13,6.20
2015,09,26,07,14,6.20
2015,09,26,07,15,6.20
2015,09,26,07,16,6.20
2015,09,26,07,17,6.30
2015,09,26,07,18,6.30
2015,09,26,07,19,6.30
2015,09,26,07,20,6.30
2015,09,26,07,21,6.30
2015,09,26,07,22,6.30
2015,09,26,07,23,6.30
2015,09,26,07,24,6.30
2015,09,26,07,25,6.30
2015,09,26,07,26,6.30
2015,09,26,07,27,6.30
2015,09,26,07,28,6.30
2015,09,26,07,29,6.30
2015,09,26,07,30,6.30
2015,09,26,07,31,6.30
2015,09,26,07,32,6.30
2015,09,26,07,33,6.30
2015,09,26,07,34,6.30
2015,09,26,07,35,6.30
2015,09,26,07,36,6.30
2015,09,26,07,37,6.30
2015,09,26,07,38,6.30
2015,09,26,07,39,6.30
2015,09,26,07,40,6.30
2015,09,26,07,41,6.30
2015,09,26,07,42,6.30
2015,09,26,07,43,6.30
2015,09,26,07,44,6.30
2015,09,26,07,45,6.30
2015,09,26,07,46,6.30
2015,09,26,07,47,6.30
2015,09,26,07,48,6.30
2015,09,26,07,49,6.30
2015,09,26,07,50,6.30
2015,09,26,07,51,6.30
2015,09,26,07,52,6.30
2015,09,26,07,53,6.30
2015,09,26,07,54,6.30
2015,09,26,07,55,6.30
2015,09,26,07,56,6.30
2015,09,26,07,57,6.30
2015,09,26,07,58,6.30
2015,09,26,07,59,6.30
2015,09,26,08,00,6.30
2015,09,26,08,01,6.30
2015,09,26,08,02,6.30
2015,09,26,08,03,6.30
2015,09,26,08,04,6.30
2015,09,26,08,05,6.40
2015,09,26,08,06,6.40
2015,09,26,08,07,6.40
2015,09,26,08,08,6.40
2015,09,26,08,09,6.40
2015,09,26,08,10,6.50
2015,09,26,08,11,6.50
2015,09,26,08,12,6.50
2015,09,26,08,13,6.60
2015,09,26,08,14,6.60
2015,09,26,08,15,6.60
2015,09,26,08,16,6.60
2015,09,26,08,17,6.70
2015,09,26,08,18,6.70
2015,09,26,08,19,6.70
2015,09,26,08,20,6.80
2015,09,26,08,21,6.80
2015,09,26,08,22,6.90
2015,09,26,08,23,6.90
2015,09,26,08,24,7.00
2015,09,26,08,25,7.00
2015,09,26,08,26,7.00
2015,09,26,08,27,7.10
2015,09,26,08,28,7.10
2015,09,26,08,29,7.20
2015,09,26,08,30,7.20
2015,09,26,08,31,7.20
2015,09,26,08,32,7.30
2015,09,26,08,33,7.30
2015,09,26,08,34,7.30
2015,09,26,08,35,7.30
2015,09,26,08,36,7.40
2015,09,26,08,37,7.40
2015,09,26,08,38,7.40
2015,09,26,08,39,7.50
2015,09,26,08,40,7.50
2015,09,26,08,41,7.60
2015,09,26,08,42,7.60
2015,09,26,08,43,7.60
2015,09,26,08,44,7.60
2015,09,26,08,45,7.60
2015,09,26,08,46,7.70
2015,09,26,08,47,7.70
2015,09,26,08,48,7.70
2015,09,26,08,49,7.70
2015,09,26,08,50,7.80
2015,09,26,08,51,7.80
2015,09,26,08,52,7.80
2015,09,26,08,53,7.90
2015,09,26,08,54,7.90
2015,09,26,08,55,8.00
2015,09,26,08,56,8.00
2015,09,26,08,57,8.20
2015,09,26,08,58,8.30
2015,09,26,08,59,8.40
2015,09,26,09,00,8.50
2015,09,26,09,01,8.60
2015,09,26,09,02,8.80
2015,09,26,09,03,8.90
2015,09,26,09,04,9.00
2015,09,26,09,05,9.00
2015,09,26,09,06,9.10
2015,09,26,09,07,9.20
2015,09,26,09,08,9.30
2015,09,26,09,09,9.30
2015,09,26,09,10,9.40
2015,09,26,09,11,9.50
2015,09,26,09,12,9.50
2015,09,26,09,13,9.60
2015,09,26,09,14,9.70
2015,09,26,09,15,9.70
2015,09,26,09,16,9.80
2015,09,26,09,17,9.80
2015,09,26,09,18,9.80
2015,09,26,09,19,9.80
2015,09,26,09,20,9.80
2015,09,26,09,21,9.80
2015,09,26,09,22,9.80
2015,09,26,09,23,9.90
2015,09,26,09,24,9.90
2015,09,26,09,25,9.90
2015,09,26,09,26,9.90
2015,09,26,09,27,10.00
2015,09,26,09,28,10.00
2015,09,26,09,29,10.00
2015,09,26,09,30,10.00
2015,09,26,09,31,10.10
2015,09,26,09,32,10.10
2015,09,26,09,33,10.10
2015,09,26,09,34,10.10
2015,09,26,09,35,10.10
2015,09,26,09,36,10.20
2015,09,26,09,37,10.20
2015,09,26,09,38,10.30
2015,09,26,09,39,10.30
2015,09,26,09,40,10.30
2015,09,26,09,41,10.40
2015,09,26,09,42,10.40
2015,09,26,09,43,10.40
2015,09,26,09,44,10.50
2015,09,26,09,45,10.60
2015,09,26,09,46,10.60
2015,09,26,09,47,10.50
2015,09,26,09,48,10.50
2015,09,26,09,49,10.60
2015,09,26,09,50,10.60
2015,09,26,09,51,10.60
2015,09,26,09,52,10.60
2015,09,26,09,53,10.60
2015,09,26,09,54,10.70
2015,09,26,09,55,10.70
2015,09,26,09,56,10.70
2015,09,26,09,57,10.70
2015,09,26,09,58,10.70
2015,09,26,09,59,10.70
2015,09,26,10,00,10.70
2015,09,26,10,01,10.70
2015,09,26,10,02,10.80
2015,09,26,10,03,10.80
2015,09,26,10,04,10.90
2015,09,26,10,05,10.90
2015,09,26,10,06,10.90
2015,09,26,10,07,11.00
2015,09,26,10,08,11.00
2015,09,26,10,09,11.00
2015,09,26,10,10,11.10
2015,09,26,10,11,11.10
2015,09,26,10,12,11.20
2015,09,26,10,13,11.20
2015,09,26,10,14,11.20
2015,09,26,10,15,11.20
2015,09,26,10,16,11.30
2015,09,26,10,17,11.30
2015,09,26,10,18,11.40
2015,09,26,10,19,11.50
2015,09,26,10,20,11.60
2015,09,26,10,21,11.70
2015,09,26,10,22,11.80
2015,09,26,10,23,11.80
2015,09,26,10,24,11.80
2015,09,26,10,25,11.80
2015,09,26,10,26,11.80
2015,09,26,10,27,11.70
2015,09,26,10,28,11.80
2015,09,26,10,29,11.80
2015,09,26,10,30,11.90
2015,09,26,10,31,12.00
2015,09,26,10,32,12.10
2015,09,26,10,33,12.10
2015,09,26,10,34,12.20
2015,09,26,10,35,12.20
2015,09,26,10,36,12.20
2015,09,26,10,37,12.30
2015,09,26,10,38,12.30
2015,09,26,10,39,12.40
2015,09,26,10,40,12.40
2015,09,26,10,41,12.40
2015,09,26,10,42,12.40
2015,09,26,10,43,12.30
2015,09,26,10,44,12.30
2015,09,26,10,45,12.30
2015,09,26,10,46,12.40
2015,09,26,10,47,12.40
2015,09,26,10,48,12.40
2015,09,26,10,49,12.40
2015,09,26,10,50,12.50
2015,09,26,10,51,12.60
2015,09,26,10,52,12.70
2015,09,26,10,53,12.70
2015,09,26,10,54,12.80
2015,09,26,10,55,13.00
2015,09,26,10,56,13.10
2015,09,26,10,57,13.20
2015,09,26,10,58,13.40
2015,09,26,10,59,13.50
2015,09,26,11,00,13.60
2015,09,26,11,01,13.70
2015,09,26,11,02,13.70
2015,09,26,11,03,13.80
2015,09,26,11,04,13.80
2015,09,26,11,05,13.90
2015,09,26,11,06,13.90
2015,09,26,11,07,13.90
2015,09,26,11,08,13.90
2015,09,26,11,09,13.90
2015,09,26,11,10,13.90
2015,09,26,11,11,13.90
2015,09,26,11,12,13.90
2015,09,26,11,13,13.90
2015,09,26,11,14,13.90
2015,09,26,11,15,14.00
2015,09,26,11,16,14.00
2015,09,26,11,17,13.90
2015,09,26,11,18,13.90
2015,09,26,11,19,14.00
2015,09,26,11,20,14.10
2015,09,26,11,21,14.20
2015,09,26,11,22,14.30
2015,09,26,11,23,14.40
2015,09,26,11,24,14.50
2015,09,26,11,25,14.60
2015,09,26,11,26,14.70
2015,09,26,11,27,14.80
2015,09,26,11,28,14.90
2015,09,26,11,29,15.00
2015,09,26,11,30,15.20
2015,09,26,11,31,15.30
2015,09,26,11,32,15.30
2015,09,26,11,33,15.40
2015,09,26,11,34,15.40
2015,09,26,11,35,15.40
2015,09,26,11,36,15.30
2015,09,26,11,37,15.30
2015,09,26,11,38,15.30
2015,09,26,11,39,15.30
2015,09,26,11,40,15.30
2015,09,26,11,41,15.30
2015,09,26,11,42,15.40
2015,09,26,11,43,15.50
2015,09,26,11,44,15.60
2015,09,26,11,45,15.60
2015,09,26,11,46,15.60
2015,09,26,11,47,15.70
2015,09,26,11,48,15.60
2015,09,26,11,49,15.70
2015,09,26,11,50,15.70
2015,09,26,11,51,15.70
2015,09,26,11,52,15.70
2015,09,26,11,53,15.60
2015,09,26,11,54,15.50
2015,09,26,11,55,15.50
2015,09,26,11,56,15.40
2015,09,26,11,57,15.40
2015,09,26,11,58,15.30
2015,09,26,11,59,15.20
2015,09,26,12,00,15.20
2015,09,26,12,01,15.10
2015,09,26,12,02,15.10
2015,09,26,12,03,15.00
2015,09,26,12,04,14.90
2015,09,26,12,05,14.80
2015,09,26,12,06,14.70
2015,09,26,12,07,14.70
2015,09,26,12,08,14.70
2015,09,26,12,09,14.70
2015,09,26,12,10,14.70
2015,09,26,12,11,14.70
2015,09,26,12,12,14.70
2015,09,26,12,13,14.70
2015,09,26,12,14,14.70
2015,09,26,12,15,14.70
2015,09,26,12,16,14.70
2015,09,26,12,17,14.70
2015,09,26,12,18,14.70
2015,09,26,12,19,14.70
2015,09,26,12,20,14.80
2015,09,26,12,21,14.80
2015,09,26,12,22,14.80
2015,09,26,12,23,14.80
2015,09,26,12,24,14.70
2015,09,26,12,25,14.70
2015,09,26,12,26,14.70
2015,09,26,12,27,14.60
2015,09,26,12,28,14.60
2015,09,26,12,29,14.60
2015,09,26,12,30,14.60
2015,09,26,12,31,14.60
2015,09,26,12,32,14.50
2015,09,26,12,33,14.50
2015,09,26,12,34,14.40
2015,09,26,12,35,14.30
2015,09,26,12,36,14.30
2015,09,26,12,37,14.30
2015,09,26,12,38,14.30
2015,09,26,12,39,14.20
2015,09,26,12,40,14.20
2015,09,26,12,41,14.20
2015,09,26,12,42,14.10
2015,09,26,12,43,14.10
2015,09,26,12,44,14.10
2015,09,26,12,45,14.00
2015,09,26,12,46,14.00
2015,09,26,12,47,14.00
2015,09,26,12,48,13.90
2015,09,26,12,49,13.90
2015,09,26,12,50,13.90
2015,09,26,12,51,13.90
2015,09,26,12,52,13.80
2015,09,26,12,53,13.80
2015,09,26,12,54,13.80
2015,09,26,12,55,13.80
2015,09,26,12,56,13.70
2015,09,26,12,57,13.70
2015,09,26,12,58,13.70
2015,09,26,12,59,13.70
2015,09,26,13,00,13.70
2015,09,26,13,01,13.60
2015,09,26,13,02,13.60
2015,09,26,13,03,13.60
2015,09,26,13,04,13.60
2015,09,26,13,05,13.60
2015,09,26,13,06,13.60
2015,09,26,13,07,13.60
2015,09,26,13,08,13.60
2015,09,26,13,09,13.60
2015,09,26,13,10,13.60
2015,09,26,13,11,13.60
2015,09,26,13,12,13.60
2015,09,26,13,13,13.50
2015,09,26,13,14,13.50
2015,09,26,13,15,13.40
2015,09,26,13,16,13.40
2015,09,26,13,17,13.40
2015,09,26,13,18,13.40
2015,09,26,13,19,13.40
2015,09,26,13,20,13.40
2015,09,26,13,21,13.40
2015,09,26,13,22,13.40
2015,09,26,13,23,13.50
2015,09,26,13,24,13.50
2015,09,26,13,25,13.60
2015,09,26,13,26,13.60
2015,09,26,13,27,13.60
2015,09,26,13,28,13.60
2015,09,26,13,29,13.70
2015,09,26,13,30,13.70
2015,09,26,13,31,13.80
2015,09,26,13,32,13.80
2015,09,26,13,33,13.90
2015,09,26,13,34,13.90
2015,09,26,13,35,14.00
2015,09,26,13,36,14.10
2015,09,26,13,37,14.10
2015,09,26,13,38,14.10
2015,09,26,13,39,14.10
2015,09,26,13,40,14.20
2015,09,26,13,41,14.20
2015,09,26,13,42,14.20
2015,09,26,13,43,14.20
2015,09,26,13,44,14.20
2015,09,26,13,45,14.20
2015,09,26,13,46,14.30
2015,09,26,13,47,14.30
2015,09,26,13,48,14.30
2015,09,26,13,49,14.30
2015,09,26,13,50,14.40
2015,09,26,13,51,14.50
2015,09,26,13,52,14.50
2015,09,26,13,53,14.60
2015,09,26,13,54,14.60
2015,09,26,13,55,14.60
2015,09,26,13,56,14.60
2015,09,26,13,57,14.70
2015,09,26,13,58,14.70
2015,09,26,13,59,14.80
2015,09,26,14,00,14.80
2015,09,26,14,01,14.80
2015,09,26,14,02,14.80
2015,09,26,14,03,14.80
2015,09,26,14,04,14.80
2015,09,26,14,05,14.80
2015,09,26,14,06,14.80
2015,09,26,14,07,14.80
2015,09,26,14,08,14.90
2015,09,26,14,09,15.00
2015,09,26,14,10,15.00
2015,09,26,14,11,15.10
2015,09,26,14,12,15.20
2015,09,26,14,13,15.20
2015,09,26,14,14,15.20
2015,09,26,14,15,15.20
2015,09,26,14,16,15.30
2015,09,26,14,17,15.30
2015,09,26,14,18,15.30
2015,09,26,14,19,15.20
2015,09,26,14,20,15.20
2015,09,26,14,21,15.20
2015,09,26,14,22,15.20
2015,09,26,14,23,15.20
2015,09,26,14,24,15.20
2015,09,26,14,25,15.30
2015,09,26,14,26,15.30
2015,09,26,14,27,15.40
2015,09,26,14,28,15.40
2015,09,26,14,29,15.40
2015,09,26,14,30,15.50
2015,09,26,14,31,15.60
2015,09,26,14,32,15.70
2015,09,26,14,33,15.80
2015,09,26,14,34,15.80
2015,09,26,14,35,15.80
2015,09,26,14,36,15.80
2015,09,26,14,37,15.80
2015,09,26,14,38,15.70
2015,09,26,14,39,15.70
2015,09,26,14,40,15.70
2015,09,26,14,41,15.70
2015,09,26,14,42,15.70
2015,09,26,14,43,15.60
2015,09,26,14,44,15.70
2015,09,26,14,45,15.70
2015,09,26,14,46,15.70
2015,09,26,14,47,15.80
2015,09,26,14,48,15.80
2015,09,26,14,49,15.90
2015,09,26,14,50,15.90
2015,09,26,14,51,16.00
2015,09,26,14,52,16.00
2015,09,26,14,53,16.00
2015,09,26,14,54,16.00
2015,09,26,14,55,16.00
2015,09,26,14,56,16.00
2015,09,26,14,57,16.00
2015,09,26,14,58,16.10
2015,09,26,14,59,16.10
2015,09,26,15,00,16.10
2015,09,26,15,01,16.20
2015,09,26,15,02,16.20
2015,09,26,15,03,16.30
2015,09,26,15,04,16.40
2015,09,26,15,05,16.50
2015,09,26,15,06,16.60
2015,09,26,15,07,16.70
2015,09,26,15,08,16.80
2015,09,26,15,09,16.80
2015,09,26,15,10,16.80
2015,09,26,15,11,16.80
2015,09,26,15,12,16.70
2015,09,26,15,13,16.70
2015,09,26,15,14,16.70
2015,09,26,15,15,16.70
2015,09,26,15,16,16.60
2015,09,26,15,17,16.60
2015,09,26,15,18,16.50
2015,09,26,15,19,16.50
2015,09,26,15,20,16.40
2015,09,26,15,21,16.40
2015,09,26,15,22,16.30
2015,09,26,15,23,16.30
2015,09,26,15,24,16.30
2015,09,26,15,25,16.30
2015,09,26,15,26,16.30
2015,09,26,15,27,16.30
2015,09,26,15,28,16.40
2015,09,26,15,29,16.50
2015,09,26,15,30,16.50
2015,09,26,15,31,16.60
2015,09,26,15,32,16.60
2015,09,26,15,33,16.60
2015,09,26,15,34,16.60
2015,09,26,15,35,16.60
2015,09,26,15,36,16.50
2015,09,26,15,37,16.50
2015,09,26,15,38,16.40
2015,09,26,15,39,16.40
2015,09,26,15,40,16.30
2015,09,26,15,41,16.30
2015,09,26,15,42,16.30
2015,09,26,15,43,16.30
2015,09,26,15,44,16.30
2015,09,26,15,45,16.40
2015,09,26,15,46,16.40
2015,09,26,15,47,16.40
2015,09,26,15,48,16.40
2015,09,26,15,49,16.30
2015,09,26,15,50,16.30
2015,09,26,15,51,16.30
2015,09,26,15,52,16.20
2015,09,26,15,53,16.10
2015,09,26,15,54,16.10
2015,09,26,15,55,16.10
2015,09,26,15,56,16.10
2015,09,26,15,57,16.10
2015,09,26,15,58,16.10
2015,09,26,15,59,16.10
2015,09,26,16,00,16.10
2015,09,26,16,01,16.10
2015,09,26,16,02,16.10
2015,09,26,16,03,16.00
2015,09,26,16,04,16.00
2015,09,26,16,05,16.00
2015,09,26,16,06,16.00
2015,09,26,16,07,16.00
2015,09,26,16,08,16.00
2015,09,26,16,09,16.10
2015,09,26,16,10,16.00
2015,09,26,16,11,16.00
2015,09,26,16,12,16.00
2015,09,26,16,13,16.00
2015,09,26,16,14,15.90
2015,09,26,16,15,15.90
2015,09,26,16,16,15.90
2015,09,26,16,17,15.80
2015,09,26,16,18,15.80
2015,09,26,16,19,15.80
2015,09,26,16,20,15.70
2015,09,26,16,21,15.70
2015,09,26,16,22,15.70
2015,09,26,16,23,15.60
2015,09,26,16,24,15.60
2015,09,26,16,25,15.60
2015,09,26,16,26,15.70
2015,09,26,16,27,15.70
2015,09,26,16,28,15.70
2015,09,26,16,29,15.70
2015,09,26,16,30,15.70
2015,09,26,16,31,15.80
2015,09,26,16,32,15.80
2015,09,26,16,33,15.80
2015,09,26,16,34,15.90
2015,09,26,16,35,15.90
2015,09,26,16,36,15.90
2015,09,26,16,37,16.00
2015,09,26,16,38,16.00
2015,09,26,16,39,16.00
2015,09,26,16,40,16.10
2015,09,26,16,41,16.10
2015,09,26,16,42,16.10
2015,09,26,16,43,16.10
2015,09,26,16,44,16.10
2015,09,26,16,45,16.10
2015,09,26,16,46,16.10
2015,09,26,16,47,16.10
2015,09,26,16,48,16.10
2015,09,26,16,49,16.10
2015,09,26,16,50,16.10
2015,09,26,16,51,16.10
2015,09,26,16,52,16.20
2015,09,26,16,53,16.20
2015,09,26,16,54,16.10
2015,09,26,16,55,16.10
2015,09,26,16,56,16.00
2015,09,26,16,57,16.00
2015,09,26,16,58,16.00
2015,09,26,16,59,16.00
2015,09,26,17,00,15.90
2015,09,26,17,01,15.90
2015,09,26,17,02,15.90
2015,09,26,17,03,16.00
2015,09,26,17,04,16.00
2015,09,26,17,05,16.00
2015,09,26,17,06,16.10
2015,09,26,17,07,16.10
2015,09,26,17,08,16.10
2015,09,26,17,09,16.20
2015,09,26,17,10,16.20
2015,09,26,17,11,16.30
2015,09,26,17,12,16.30
2015,09,26,17,13,16.40
2015,09,26,17,14,16.40
2015,09,26,17,15,16.40
2015,09,26,17,16,16.40
2015,09,26,17,17,16.40
2015,09,26,17,18,16.50
2015,09,26,17,19,16.50
2015,09,26,17,20,16.50
2015,09,26,17,21,16.60
2015,09,26,17,22,16.50
2015,09,26,17,23,16.50
2015,09,26,17,24,16.40
2015,09,26,17,25,16.40
2015,09,26,17,26,16.30
2015,09,26,17,27,16.30
2015,09,26,17,28,16.20
2015,09,26,17,29,16.20
2015,09,26,17,30,16.10
2015,09,26,17,31,16.10
2015,09,26,17,32,16.00
2015,09,26,17,33,16.00
2015,09,26,17,34,15.90
2015,09,26,17,35,15.90
2015,09,26,17,36,15.80
2015,09,26,17,37,15.80
2015,09,26,17,38,15.80
2015,09,26,17,39,15.80
2015,09,26,17,40,15.80
2015,09,26,17,41,15.80
2015,09,26,17,42,15.80
2015,09,26,17,43,15.80
2015,09,26,17,44,15.80